Current weather by "City, St" or "zip code"  
 

Current Conditions: Easton / Newman Field, MD

Fair


75.0 F

Last Updated on Oct 24 2020, 12:52 pm EDT
Humidity: 69%
Wind Speed: W 6.9 mph
Barometer 29.98 in
Dewpoint: 64.4 F
Visibility: 10.00 mi
Precip: --
Heat Index: NA
Wind Chill: NA
Current conditions at:

Easton / Newman Field, MD (KESN)

Lat: 38.8 Lon: 76.06667

Local Radar Image active severe weather and emergency alerts image image weather storm and storm spotter reports image weather observation monitoring service image
Local
Radar
Active
Alerts
Storm Reports Obs
Monitoring

Sign-up For Email & Text Message Weather Alert Notification Services



Advertise Here

Observation History for Easton / Newman Field, MD


Time Wind
(mph)
Vis
(mi)
Weather Precip (in) Temperature (F) Relative
Humidity
Wind
Chill
(F)
Heat
Index
(F)
Pressure
Air Dwpt altimeter
(in)
sea level
(mb)
Rmks
12:52 pm EDT W 6.9 10.00 Fair -- 75.0 64.4 69% NA NA 29.98 M
11:55 am EDT W 9.2 10.00 Fair -- 75.0 64.4 69% NA NA 29.99 M
10:50 am EDT SW 4.6 10.00 Fair -- 72.0 64.4 78% NA NA 30.00 M
9:50 am EDT SW 5.8 10.00 Mostly Cloudy -- 70.0 66.2 88% NA NA 30.01 M
8:50 am EDT S 6.9 10.00 Mostly Cloudy -- 66.0 64.4 94% NA NA 30.01 M
7:45 am EDT S 5.8 10.00 Mostly Cloudy -- 64.0 64.4 100% NA NA 30.00 M
6:45 am EDT SE 8.1 4.00 Fog/Mist -- 64.0 64.4 100% NA NA 30.00 M
5:50 am EDT S 6.9 4.00 Fog/Mist -- 64.0 64.4 100% NA NA 30.01 M
4:55 am EDT S 4.6 10.00 Overcast -- 64.0 63.3 96% NA NA 30.02 M
3:55 am EDT SE 4.6 10.00 Overcast -- 64.0 62.6 96% NA NA 30.03 M
2:55 am EDT SE 4.6 10.00 Overcast -- 64.0 63.1 96% NA NA 30.04 M
1:55 am EDT S 3.5 10.00 Overcast -- 64.0 63.1 96% NA NA 30.05 M
12:55 am EDT SE 5.8 10.00 Overcast -- 63.0 62.1 96% 63 NA 30.06 M
11:55 pm EDT S 6.9 10.00 Overcast -- 64.0 62.8 96% NA NA 30.08 M
10:55 pm EDT SE 3.5 10.00 Fair -- 63.0 61.7 96% NA NA 30.10 M
9:45 pm EDT S 3.5 10.00 Partly Cloudy -- 64.0 62.6 94% NA NA 30.09 M
8:50 pm EDT SE 4.6 10.00 Partly Cloudy -- 66.0 64.4 94% NA NA 30.10 M
7:45 pm EDT SE 5.8 10.00 Partly Cloudy -- 66.0 62.6 88% NA NA 30.11 M
6:50 pm EDT SE 3.5 10.00 Partly Cloudy -- 70.0 62.6 78% NA NA 30.11 M
5:45 pm EDT SE 4.6 10.00 Partly Cloudy -- 72.0 62.6 73% NA NA 30.12 M
4:50 pm EDT E 6.9 10.00 A Few Clouds -- 73.0 62.6 69% NA NA 30.13 M
3:50 pm EDT E 5.8 10.00 Partly Cloudy -- 73.0 62.6 69% NA NA 30.15 M
2:50 pm EDT SE 6.9 10.00 Partly Cloudy -- 75.0 62.6 65% NA NA 30.16 M
1:55 pm EDT SE 6.9 10.00 Partly Cloudy -- 73.0 64.4 74% NA NA 30.19 M

Regional Weather Observation


Annapolis, United States Naval Academy, MD (KNAK)

Fair
73.0 F

Easton / Newman Field, MD (KESN)

Fair
75.0 F

Fort Meade / Tipton, MD (KFME)

Fair
73.0 F

Baltimore, Baltimore-Washington International Airport, MD (KBWI)

Overcast
75.0 F

Baltimore / Martin, MD (KMTN)

Mostly Cloudy
75.0 F

College Park Airport, MD (KCGS)

Partly Cloudy
73.0 F